Change the Weather History Date:

Wednesday, November 13, 2013

  Actual Average Record
Temperature  
Mean Temperature 36 °F 41 °F  
Max Temperature 42 °F 48 °F 67 °F (1909)
Min Temperature 30 °F 35 °F 11 °F (1911)
Degree Days  
Heating Degree Days 29 24  
Month to date heating degree days 278 282  
Since 1 July heating degree days 786 905  
Cooling Degree Days 0 0  
Month to date cooling degree days 0 0  
Year to date cooling degree days 626 566  
Moisture  
Dew Point 22 °F    
Average Humidity 53    
Maximum Humidity 63    
Minimum Humidity 43    
Precipitation  
Precipitation 0.00 in 0.12 in 1.98 in (1958)
Month to date precipitation 1.35 1.48  
Year to date precipitation 39.02 29.06  
Snow  
Snow 0.00 in 0.10 in 6.30 in (2014)
Month to date snowfall 0.1 1.2  
Since 1 July snowfall 0.1 1.4  
Since 1 September snowfall 0.1 1.4  
Snow Depth 0.00 in    
Sea Level Pressure  
Sea Level Pressure 30.35 in    
Wind  
Wind Speed 19 mph (WSW)    
Max Wind Speed 36 mph    
Max Gust Speed 45 mph    
Visibility 10 miles    
Events      
T = Trace of Precipitation, MM = Missing Value Source: NWS Daily Summary

Daily Weather History Graph

Daily Weather History Graph

Search for Another Location

Airport or City:

Trip Planner

Search our weather history database for the weather conditions in past years. The results will help you decide how hot, cold, wet, or windy it might be!

Date:

Astronomy

Nov. 13, 2013 Rise Set
Actual Time 7:35 AM EST 5:22 PM EST
Civil Twilight 7:04 AM EST 5:53 PM EST
Nautical Twilight 6:30 AM EST 6:27 PM EST
Astronomical Twilight 5:57 AM EST 7:00 PM EST
Moon 3:14 PM EST (11/13) 3:21 AM EST (11/13)
Length of Visible Light 10h 48m
Length of Day
9h 46m
Waxing Gibbous, 84% of the Moon is Illuminated
Nov 13
Waxing Gibbous
Nov 17
Full
Nov 25
Last Quarter
Dec 2
New
Dec 9
First Quarter

Hourly Weather History & Observations

Time (EST) Temp. Windchill Dew Point Humidity Pressure Visibility Wind Dir Wind Speed Gust Speed Precip Events Conditions
12:55 AM 30.0 °F 21.7 °F 18.0 °F 61% 30.53 in 10.0 mi West 9.2 mph - N/A   Clear
1:55 AM 32.0 °F 24.2 °F 19.0 °F 59% 30.54 in 10.0 mi WNW 9.2 mph - N/A   Clear
2:55 AM 30.9 °F 25.2 °F 19.9 °F 64% 30.52 in 10.0 mi West 5.8 mph - N/A   Clear
3:55 AM 32.0 °F 24.8 °F 19.0 °F 59% 30.51 in 10.0 mi West 8.1 mph - N/A   Clear
4:55 AM 32.0 °F 23.0 °F 19.9 °F 61% 30.49 in 10.0 mi West 11.5 mph 17.3 mph N/A   Clear
5:55 AM 32.0 °F 24.8 °F 19.9 °F 61% 30.48 in 10.0 mi WSW 8.1 mph - N/A   Clear
6:55 AM 32.0 °F 23.0 °F 21.0 °F 64% 30.47 in 10.0 mi West 11.5 mph - N/A   Clear
7:55 AM 33.1 °F 26.1 °F 19.0 °F 56% 30.47 in 10.0 mi WSW 8.1 mph 18.4 mph N/A   Mostly Cloudy
8:55 AM 35.1 °F 26.4 °F 19.9 °F 54% 30.46 in 10.0 mi West 12.7 mph 20.7 mph N/A   Mostly Cloudy
9:55 AM 37.0 °F 27.7 °F 21.0 °F 52% 30.43 in 10.0 mi SW 16.1 mph 24.2 mph N/A   Mostly Cloudy
10:55 AM 39.0 °F 29.9 °F 21.9 °F 50% 30.42 in 10.0 mi WSW 17.3 mph 23.0 mph N/A   Mostly Cloudy
11:55 AM 39.9 °F 29.7 °F 21.0 °F 47% 30.39 in 10.0 mi SW 23.0 mph 31.1 mph N/A   Mostly Cloudy
12:55 PM 41.0 °F 31.1 °F 21.0 °F 45% 30.35 in 10.0 mi SW 23.0 mph 31.1 mph N/A   Mostly Cloudy
1:55 PM 41.0 °F 31.4 °F 21.9 °F 47% 30.32 in 10.0 mi SW 21.9 mph 32.2 mph N/A   Mostly Cloudy
2:55 PM 42.1 °F 32.6 °F 21.9 °F 45% 30.29 in 10.0 mi SW 23.0 mph 35.7 mph N/A   Mostly Cloudy
3:55 PM 41.0 °F 31.4 °F 21.0 °F 45% 30.25 in 10.0 mi SSW 21.9 mph 35.7 mph N/A   Mostly Cloudy
4:55 PM 41.0 °F 30.9 °F 23.0 °F 49% 30.23 in 10.0 mi SSW 24.2 mph 34.5 mph N/A   Mostly Cloudy
5:55 PM 41.0 °F 31.1 °F 25.0 °F 53% 30.19 in 10.0 mi SSW 23.0 mph 36.8 mph N/A   Mostly Cloudy
6:55 PM 41.0 °F 30.2 °F 24.1 °F 51% 30.19 in 10.0 mi SW 27.6 mph 39.1 mph N/A   Mostly Cloudy
7:55 PM 41.0 °F 29.8 °F 26.1 °F 55% 30.17 in 10.0 mi SSW 29.9 mph 39.1 mph N/A   Clear
8:55 PM 39.9 °F 28.6 °F 27.0 °F 60% 30.15 in 10.0 mi SW 28.8 mph 40.3 mph N/A   Clear
9:55 PM 41.0 °F 30.2 °F 27.0 °F 57% 30.14 in 10.0 mi SW 27.6 mph 41.4 mph N/A   Clear
10:55 PM 41.0 °F 30.7 °F 27.0 °F 57% 30.13 in 10.0 mi SW 25.3 mph 34.5 mph N/A   Clear
11:55 PM 41.0 °F 30.2 °F 25.0 °F 53% 30.14 in 10.0 mi SW 27.6 mph 36.8 mph N/A   Clear